Tracking 18945 objects as of 21-Jan-2018
HD Live streaming from Space Station
objects crossing your sky now

COSMOS 1527

Track COSMOS 1527 now!
10-day predictions
COSMOS 1527 is classified as:


NORAD ID: 14616
Int'l Code: 1984-001F
Perigee: 1,466.6 km
Apogee: 1,467.8 km
Inclination: 74.0 °
Period: 115.1 minutes
Semi major axis: 7838 km
RCS: 0.6921 m2 (medium)
Launch date: January 5, 1984
Source: Commonwealth of Independent States (former USSR) (CIS)
Launch site: PLESETSK MISSILE AND SPACE COMPLEX (PKMTR)
aabbcc
Your satellite tracking list
Your tracking list is empty




NASA's NSSDC Master Catalog

Two Line Element Set (TLE):
1 14616U 84001F   18020.51855753 -.00000020 +00000-0 -26532-4 0  9997
2 14616 074.0079 040.8334 0000784 082.0002 072.5918 12.51057130143544
Source of the keplerian elements: AFSPC